Retour au catalogue

DELTA 1 DEB

ActifPO
NORAD 21363·DEBRIS·🇺🇸 United States

Lancé Jun 12, 1975 depuis Vandenberg Space Force Base

Loading…

Prochains Passages (prochaines 24 heures)

TLE

FraisSource: Space-Track

Époque: Sep 14, 2026, 13:22 UTC

1 21363U 75052CH  26257.55736731  .00000150  00000-0  50057-3 0  9999
2 21363  99.7353 166.2759 0175662  67.5186 106.9894 13.10299769688151

Suivez DELTA 1 DEB en temps réel avec AllMySat

Download on the App Store